This demonstration page uses our WeatherBlox Daily Observations layout. Learn more.

38.89511, -77.03637

Hourly Observations for May 29, 2019

Temp ( °F °C ) Dew Point ( °F °C ) Humidity (%) Winds ( mph kmh ) Pressure ( in mb ) Visibility ( mi km ) Precip ( " mm )
12:52 am 00:52 Mostly Cloudy 77 25 71 21.7 82 82 S 6 9 29.74 1007 10 16.09344 0 0
1:52 am 01:52 Mostly Cloudy 77 25 72 22.2 85 85 Calm 29.71 1006 10 16.09344 0 0
2:52 am 02:52 Cloudy 76 24.4 71 21.7 85 85 SW 5 7 29.71 1006 10 16.09344 0 0
3:52 am 03:52 Partly Cloudy 75 23.9 70 21.1 84 84 Calm 29.74 1007 10 16.09344 0 0
4:52 am 04:52 Mostly Clear 75 23.9 70 21.1 84 84 S 5 7 29.74 1007 10 16.09344 0 0
5:52 am 05:52 Mostly Sunny 74 23.3 70 21.1 88 88 SSW 3 6 29.74 1007 10 16.09344 0 0
6:52 am 06:52 Mostly Sunny 75 23.9 70 21.1 84 84 S 5 7 29.77 1008 10 16.09344 0 0
7:52 am 07:52 Mostly Sunny 78 25.6 68 20 71 71 SSE 7 11 29.77 1008 10 16.09344 0 0
8:52 am 08:52 Mostly Sunny 80 26.7 69 20.6 69 69 SSE 9 15 29.77 1008 10 16.09344 0 0
9:52 am 09:52 Mostly Cloudy 84 28.9 65 18.3 53 53 SW 10 17 29.77 1008 10 16.09344 0 0
10:52 am 10:52 Mostly Cloudy 87 30.6 66 18.9 50 50 SW 10 17 29.74 1007 10 16.09344 0 0
11:52 am 11:52 Mostly Cloudy 89 31.7 65 18.3 45 45 SW 9 15 29.74 1007 10 16.09344 0 0
12:52 pm 12:52 Mostly Cloudy 90 32.2 68 20 48 48 SSW 14 22 29.71 1006 10 16.09344 0 0
1:11 pm 13:11 Mostly Cloudy 91 32.8 66 18.9 44 44 W 12 19 29.74 1007 10 16.09344 0 0
1:52 pm 13:52 Mostly Cloudy 90 32.2 66 18.9 45 45 WSW 14 22 29.71 1006 10 16.09344 0 0
2:52 pm 14:52 Mostly Cloudy 91 32.8 68 20 47 47 SW 18 30 29.68 1005 10 16.09344 0 0
3:52 pm 15:52 Mostly Cloudy 92 33.3 67 19.4 44 44 SW 20 31 29.65 1004 10 16.09344 0 0
4:52 pm 16:52 Mostly Cloudy 91 32.8 66 18.9 44 44 WSW 18 30 29.65 1004 10 16.09344 0 0
5:52 pm 17:52 Mostly Cloudy 90 32.2 68 20 48 48 WSW 17 28 29.68 1005 10 16.09344 0 0
6:52 pm 18:52 Mostly Cloudy 87 30.6 70 21.1 57 57 SW 12 19 29.68 1005 10 16.09344 0 0
7:08 pm 19:08 Mostly Cloudy with Thunderstorms 89 31.7 60 15.6 38 38 WNW 16 26 29.68 1005 10 16.09344 0 0
7:52 pm 19:52 Mostly Cloudy 88 31.1 60 15.6 39 39 W 8 13 29.71 1006 10 16.09344 0 0
8:52 pm 20:52 Mostly Cloudy 86 30 59 15 40 40 W 7 11 29.71 1006 10 16.09344 0 0
9:52 pm 21:52 Mostly Cloudy 83 28.3 64 17.8 53 53 SW 8 13 29.71 1006 10 16.09344 0 0
10:52 pm 22:52 Cloudy 83 28.3 62 16.7 49 49 W 5 7 29.74 1007 10 16.09344 0 0
11:52 pm 23:52 Mostly Cloudy 81 27.2 61 16.1 51 51 W 6 9 29.74 1007 10 16.09344 0 0

Powered by AerisWeather